STARLINK-32616, 61920

Orbit data source: Space-Track

STARLINK-32616, 61920 is a payload satellite owned by SpaceX/Seattle (US) in LEO that was launched on Mon, 11 Nov 2024 UTC via an FALCON 9 launch vehicle from the Air Force Eastern Test Range (AFETR). Payload-class satellites include a variety of spacecraft equipped with specific instruments for various scientific and technological missions. These include communications satellites like Starlink; space stations such as the ISS; scientific satellites like the Hubble; Earth observation satellites from companies like Planet Labs, Umbra, and HawkEye 360; GPS; miniature CubeSats for education and research; and military/defense satellites.

Loading next visibility...
Identifier
61920, 2024-207J
Orbit
LEO
Country
Flag of USUS
Related business
Manufacturer
SpaceX/Seattle
Mission
Operational Commercial Communications
Bus & Motor
STARLINK V2M, Unknown motor
Mass
730 kg wet, ~700 kg dry
Launch date (UTC)
2024-11-11 (2 years ago)
Launch vehicle
FALCON 9
Launch site
Air Force Eastern Test Range (AFETR)
Object type
Payload
Rocket body
Debris
Shape & HBR
Box + 2 Pan, 17.7 m
Radar Cross Section
33.884 m², Large (>1 m²)

Expand to show TLE details & history
Last TLE update: 11 hours ago

TLE from 11 hours ago
0 STARLINK-32616
1 61920U 24207J   26145.46768397  .00015127  00000-0  55791-3 0  9997
2 61920  42.9999 208.1927 0001228 272.4512  87.6199 15.27590578 86460
Epoch: 2026-05-25T11:13Z
TLE epoch observation values (Epoch: 2026-05-25T11:13:27.895Z)
Latitude
-0°
Longitude
156.77142°
Altitude
482.758 km
Speed
7.626 km/s
True Right ascension
13h 52m 46s
True Declination
0° 00' 00"
Sunlit
Object was in full shadow at epoch
Visualization orbit readout
Latitude
Unknown
Longitude
Unknown
Altitude
Unknown
Speed
Unknown
Apparent Right ascension
Unknown
Apparent Declination
Unknown
Sunlit
N/A
Visualization observer readout
Local Sidereal Time
07:15:42
Azimuth
Unknown
Elevation
Unknown
Doppler factor
Unknown
Orbital elements
Apogee altitude
485.805 km
Perigee altitude
484.12 km
Semi-major axis
6,863.1 km
Eccentricity
0.00012
Inclination
42.9999°
RAAN
208.1927°
Arg. of periapsis
272.4512°
True anomaly
87.63396°
Mean anomaly
87.6199°
Eccentric anomaly
87.62693°
Mean motion
3.81736 °/min
Orbital period
94.31 mins
BSTAR
0.00055791
Loading maneuver chart data...
Computing Atmospheric mass density...
Loading historical data...
Loading historical data...
Loading historical data...
Loading historical data...
Loading historical data...
Loading historical data...
Loading historical data...

Documentation

Showing up to 5 results
|